星链-33640 (STARLINK-33640)

导读

STARLINK-33640是美国SpaceX公司星链(Starlink)低轨互联网星座的一颗卫星,于2025年3月26日由美国发射升空。作为星链星座成员,它属于SpaceX全球宽带互联网卫星布局,运行于近地轨道,依托星链星座技术架构,可提供全球覆盖的高速卫星互联网服务,同时也具备星链卫星自主避撞、寿命末期离轨销毁等设计特点。

Basic Information
目录编号:
63378
目录名称:
STARLINK-33640
国际标识:
2025-063R
轨道中心:
EARTH
卫星名称:
星链-33640
卫星全名:
星链-33640 (STARLINK-33640)
卫星状态:
在轨 (已飞行535 天)
发射日期:
2025-03-26 UTC
国别 :
美国 (US)
星等 :
--
This satellite is enrolled in the Space Conjunction Data Service (SCDS) and the current flight risk assessment level is: No High Risk
Orbit Information
数据来源 国际轨道数据 AOE轨道数据
星历时间 2026-09-12T15:12:55+0800
15小时前
查看轨道信息
2026-09-10T07:00:00+0800
2天前
查看轨道信息
半长轴 6840.838km 6840.901km
偏心率 0.0001197 0.0001282
轨道倾角 53.157° 53.157°
近地点辐角 98.456° 88.588°
升交点赤经 264.021° 274.974°
平近点角 261.657° 285.820°
近地点 461.882km 461.886km
远地点 463.52km 463.642km
周期 93.848分钟 93.849分钟
每日圈数 15.344008 15.343798
Detailed Information
固有亮度:
5
最大亮度:
2.5
卫星平台:
Starlink V1.0
覆盖范围:
全球
运营商:
太空探索技术公司
运营商所在国:
美国
制造商(研发单位):
太空探索技术公司
制造商所在国:
美国
使用方式:
暂无
Satellite Introduction
Starlink 计划是 SpaceX 推出的全球卫星互联网项目,通过发射低轨道卫星,为全球尤其是偏远地区提供高速、低延迟的互联网服务。自 2019 年起,Starlink 已部署数千颗卫星,旨在缩小全球数字鸿沟,推动互联网普及。该项目还为军事、航空等行业提供通信支持,带来广泛经济效益。
2D Orbit Map
3D Orbit Map
Orbit Altitude Analysis Chart
Orbit Inclination Analysis Chart
Orbit Comprehensive Analysis Chart
View Comprehensive Chart
Conjunction Data List
Event ID Objects TCA Miss Dist (km) Collision Risk Probability Collision Risk Index (CRI) Action
CDM_260912-231704-857506-337821
2026-09-12T
23:17:07+0000
2.413 km
极远距离
8.479716E-7 极低风险 0.34
CDM_260914-071705-198606-337821
2026-09-14T
07:17:48+0000
2.850 km
极远距离
3.807405E-7 极低风险 0.27
Miss Distance Evolution Trend with All Objects
Collision Probability Evolution Trend with All Objects